timestamp,wind_dir_avg,wind_spd_max_dir,wind_spd_avg,wind_spd_gust,battery_voltage,lat,long
2019-12-31 00:04:01+00:00,18.0,17.0,10.58,12.04,12.57,47.59359,-54.27349
2019-12-31 00:14:01+00:00,18.0,25.0,9.79,12.25,12.57,47.59359,-54.27349
2019-12-31 00:24:01+00:00,24.0,30.0,9.78,12.82,12.57,47.59359,-54.27349
2019-12-31 00:34:01+00:00,19.0,18.0,10.23,12.14,12.57,47.59359,-54.27349
2019-12-31 00:44:01+00:00,32.0,31.0,11.79,13.69,12.57,47.59359,-54.27349
2019-12-31 00:54:01+00:00,25.0,31.0,11.89,13.98,12.57,47.59359,-54.27349
2019-12-31 01:04:01+00:00,21.0,13.0,10.49,12.76,12.57,47.59359,-54.27349
2019-12-31 01:14:01+00:00,22.0,17.0,11.06,13.31,12.57,47.59359,-54.27349
2019-12-31 01:24:01+00:00,19.0,29.0,9.91,12.25,12.57,47.59359,-54.27349
2019-12-31 01:34:01+00:00,13.0,13.0,9.86,12.66,12.57,47.59359,-54.27349
2019-12-31 01:44:01+00:00,11.0,14.0,11.72,14.19,12.57,47.59359,-54.27349
2019-12-31 01:54:01+00:00,16.0,11.0,11.25,13.65,12.57,47.59359,-54.27349
2019-12-31 02:04:01+00:00,17.0,15.0,10.57,12.14,12.57,47.59359,-54.27349
2019-12-31 02:14:01+00:00,19.0,17.0,9.21,11.25,12.57,47.59359,-54.27349
2019-12-31 02:24:01+00:00,13.0,14.0,10.0,11.82,12.57,47.59359,-54.27349
2019-12-31 02:34:01+00:00,352.0,351.0,8.97,10.02,12.57,47.59359,-54.27349
2019-12-31 02:44:01+00:00,358.0,3.0,10.72,11.84,12.57,47.59359,-54.27349
2019-12-31 02:54:01+00:00,356.0,358.0,9.24,10.81,12.57,47.59359,-54.27349
2019-12-31 03:04:01+00:00,335.0,333.0,7.97,8.99,12.57,47.59359,-54.27349
2019-12-31 03:14:01+00:00,341.0,340.0,8.76,9.73,12.57,47.59359,-54.27349
2019-12-31 03:24:01+00:00,342.0,339.0,8.09,9.63,12.57,47.59359,-54.27349
2019-12-31 03:34:01+00:00,349.0,345.0,8.86,9.92,12.57,47.59359,-54.27349
2019-12-31 03:44:01+00:00,347.0,346.0,8.35,9.18,12.57,47.59359,-54.27349
2019-12-31 03:54:01+00:00,352.0,354.0,7.44,8.05,12.57,47.59359,-54.27349
2019-12-31 04:04:01+00:00,341.0,340.0,8.89,9.63,12.57,47.59359,-54.27349
2019-12-31 04:14:01+00:00,343.0,339.0,7.73,8.46,12.49,47.59359,-54.27349
2019-12-31 04:24:01+00:00,343.0,357.0,7.26,8.1,12.49,47.59359,-54.27349
2019-12-31 04:34:01+00:00,330.0,335.0,7.61,8.64,12.49,47.59359,-54.27349
2019-12-31 04:44:01+00:00,335.0,337.0,8.49,9.16,12.49,47.59359,-54.27349
2019-12-31 04:54:01+00:00,345.0,348.0,8.77,10.16,12.49,47.59359,-54.27349
2019-12-31 05:04:01+00:00,347.0,348.0,10.24,12.06,12.49,47.59359,-54.27349
2019-12-31 05:14:01+00:00,349.0,354.0,9.7,10.94,12.49,47.59359,-54.27349
2019-12-31 05:24:01+00:00,347.0,351.0,10.15,11.04,12.49,47.59359,-54.27349
2019-12-31 05:34:01+00:00,344.0,344.0,11.4,13.13,12.49,47.59359,-54.27349
2019-12-31 05:44:01+00:00,347.0,342.0,10.91,12.23,12.49,47.59359,-54.27349
2019-12-31 05:54:01+00:00,354.0,355.0,9.58,12.33,12.49,47.59359,-54.27349
2019-12-31 06:04:01+00:00,3.0,3.0,10.96,12.71,12.49,47.59359,-54.27349
2019-12-31 06:14:01+00:00,7.0,3.0,10.81,12.64,12.49,47.59359,-54.27349
2019-12-31 06:24:01+00:00,4.0,0.0,10.32,11.45,12.49,47.59359,-54.27349
2019-12-31 06:34:01+00:00,3.0,5.0,10.62,11.57,12.49,47.59359,-54.27349
2019-12-31 06:44:01+00:00,2.0,5.0,9.96,11.28,12.49,47.59359,-54.27349
2019-12-31 06:54:01+00:00,357.0,357.0,11.43,12.28,12.49,47.59359,-54.27349
2019-12-31 07:04:01+00:00,358.0,2.0,11.09,12.92,12.49,47.59359,-54.27349
2019-12-31 07:14:01+00:00,4.0,2.0,10.1,11.35,12.49,47.59359,-54.27349
2019-12-31 07:24:01+00:00,4.0,2.0,10.56,12.22,12.49,47.59359,-54.27349
2019-12-31 07:34:01+00:00,2.0,358.0,11.44,12.47,12.49,47.59359,-54.27349
2019-12-31 07:44:01+00:00,5.0,7.0,12.13,13.95,12.49,47.59359,-54.27349
2019-12-31 07:54:01+00:00,8.0,6.0,10.4,11.94,12.49,47.59359,-54.27349
2019-12-31 08:04:01+00:00,14.0,15.0,11.71,13.01,12.49,47.59359,-54.27349
2019-12-31 08:14:01+00:00,12.0,16.0,10.21,12.06,12.41,47.59359,-54.27349
2019-12-31 08:24:01+00:00,17.0,23.0,12.24,14.12,12.41,47.59359,-54.27349
2019-12-31 08:34:01+00:00,15.0,15.0,11.36,13.23,12.41,47.59359,-54.27349
2019-12-31 08:44:01+00:00,14.0,16.0,12.66,14.05,12.41,47.59359,-54.27349
2019-12-31 08:54:01+00:00,15.0,19.0,11.17,12.9,12.41,47.59359,-54.27349
2019-12-31 09:04:01+00:00,17.0,17.0,10.75,12.06,12.41,47.59359,-54.27349
2019-12-31 09:14:01+00:00,16.0,15.0,10.5,12.59,12.41,47.59359,-54.27349
2019-12-31 09:24:01+00:00,16.0,14.0,12.17,13.6,12.41,47.59359,-54.27349
2019-12-31 09:34:01+00:00,17.0,14.0,10.28,12.13,12.41,47.59359,-54.27349
2019-12-31 09:44:01+00:00,16.0,19.0,10.73,12.64,12.41,47.59359,-54.27349
2019-12-31 09:54:01+00:00,20.0,17.0,9.15,11.16,12.41,47.59359,-54.27349
2019-12-31 10:04:01+00:00,25.0,27.0,8.41,9.73,12.41,47.59359,-54.27349
2019-12-31 10:14:01+00:00,21.0,16.0,9.15,11.07,12.41,47.59359,-54.27349
2019-12-31 10:24:01+00:00,20.0,19.0,10.81,11.99,12.41,47.59359,-54.27349
2019-12-31 10:34:01+00:00,21.0,20.0,9.57,11.77,12.41,47.59359,-54.27349
2019-12-31 10:44:01+00:00,19.0,20.0,11.19,13.23,12.41,47.59359,-54.27349
2019-12-31 10:54:01+00:00,30.0,34.0,9.16,10.33,12.41,47.59359,-54.27349
2019-12-31 11:04:01+00:00,28.0,19.0,8.15,9.62,12.41,47.59359,-54.27349
2019-12-31 11:14:01+00:00,29.0,34.0,8.73,10.05,12.41,47.59359,-54.27349
2019-12-31 11:24:01+00:00,33.0,31.0,8.77,10.53,12.41,47.59359,-54.27349
2019-12-31 11:34:01+00:00,30.0,27.0,9.12,11.36,12.41,47.59359,-54.27349
2019-12-31 11:44:01+00:00,28.0,37.0,9.11,11.35,12.41,47.59359,-54.27349
2019-12-31 11:54:01+00:00,20.0,15.0,9.37,10.85,12.41,47.59359,-54.27349
2019-12-31 12:04:01+00:00,19.0,18.0,10.27,11.57,12.41,47.59359,-54.27349
2019-12-31 12:14:01+00:00,22.0,32.0,8.66,10.15,12.41,47.59359,-54.27349
2019-12-31 12:24:01+00:00,12.0,11.0,9.83,10.73,12.41,47.59359,-54.27349
2019-12-31 12:34:01+00:00,16.0,11.0,9.01,9.79,12.41,47.59359,-54.27349
2019-12-31 12:44:01+00:00,15.0,17.0,9.17,10.35,12.41,47.59359,-54.27349
2019-12-31 12:54:01+00:00,16.0,15.0,9.03,9.98,12.41,47.59359,-54.27349
2019-12-31 13:04:01+00:00,15.0,11.0,9.24,10.61,12.41,47.59359,-54.27349
2019-12-31 13:14:01+00:00,26.0,18.0,8.04,9.21,12.57,47.59359,-54.27349
2019-12-31 13:24:01+00:00,29.0,35.0,8.87,9.9,12.57,47.59359,-54.27349
2019-12-31 13:34:01+00:00,31.0,32.0,9.24,11.18,12.57,47.59359,-54.27349
2019-12-31 13:44:01+00:00,28.0,30.0,10.43,11.9,12.57,47.59359,-54.27349
2019-12-31 13:54:01+00:00,31.0,32.0,8.46,10.17,12.57,47.59359,-54.27349
2019-12-31 14:04:01+00:00,36.0,34.0,8.67,9.84,12.57,47.59359,-54.27349
2019-12-31 14:14:01+00:00,20.0,18.0,8.75,10.56,13.84,47.59359,-54.27349
2019-12-31 14:24:01+00:00,33.0,31.0,8.14,9.03,13.84,47.59359,-54.27349
2019-12-31 14:34:01+00:00,36.0,40.0,7.62,8.98,13.84,47.59359,-54.27349
2019-12-31 14:44:01+00:00,23.0,25.0,5.89,7.01,13.84,47.59359,-54.27349
2019-12-31 14:54:01+00:00,22.0,27.0,7.25,8.07,13.84,47.59359,-54.27349
2019-12-31 15:04:01+00:00,17.0,20.0,6.49,7.5,13.84,47.59359,-54.27349
2019-12-31 16:14:01+00:00,5.0,2.0,5.3,6.01,13.68,47.59359,-54.27349
2019-12-31 16:24:01+00:00,4.0,4.0,5.34,5.9,13.68,47.59359,-54.27349
2019-12-31 16:34:01+00:00,347.0,350.0,3.99,4.63,13.68,47.59359,-54.27349
2019-12-31 16:44:01+00:00,351.0,353.0,4.41,5.21,13.68,47.59359,-54.27349
2019-12-31 16:54:01+00:00,347.0,351.0,4.76,5.89,13.68,47.59359,-54.27349
2019-12-31 17:04:01+00:00,14.0,14.0,4.89,5.54,13.68,47.59359,-54.27349
2019-12-31 17:14:01+00:00,21.0,12.0,3.52,4.4,13.6,47.59359,-54.27349
2019-12-31 17:24:01+00:00,10.0,15.0,3.78,4.43,13.6,47.59359,-54.27349
2019-12-31 17:34:01+00:00,25.0,38.0,4.6,5.8,13.6,47.59359,-54.27349
2019-12-31 17:44:01+00:00,17.0,19.0,5.92,6.63,13.6,47.59359,-54.27349
2019-12-31 17:54:01+00:00,17.0,22.0,5.28,6.53,13.6,47.59359,-54.27349
2019-12-31 18:04:01+00:00,9.0,8.0,5.62,6.36,13.6,47.59359,-54.27349
2019-12-31 18:14:01+00:00,19.0,17.0,5.17,5.9,13.13,47.59359,-54.27349
2019-12-31 18:24:01+00:00,7.0,7.0,5.71,6.39,13.13,47.59359,-54.27349
2019-12-31 18:34:01+00:00,5.0,5.0,6.04,7.2,13.13,47.59359,-54.27349
2019-12-31 18:44:01+00:00,10.0,13.0,6.34,7.52,13.13,47.59359,-54.27349
2019-12-31 18:54:01+00:00,13.0,14.0,5.82,6.45,13.13,47.59359,-54.27349
2019-12-31 19:04:01+00:00,20.0,20.0,6.75,7.5,13.13,47.59359,-54.27349
2019-12-31 19:14:01+00:00,15.0,16.0,5.58,6.07,13.37,47.59359,-54.27349
2019-12-31 19:24:01+00:00,10.0,11.0,5.7,6.17,13.37,47.59359,-54.27349
2019-12-31 19:34:01+00:00,32.0,33.0,5.61,6.97,13.37,47.59359,-54.27349
2019-12-31 19:44:01+00:00,30.0,37.0,5.27,6.29,13.37,47.59359,-54.27349
2019-12-31 19:54:01+00:00,25.0,22.0,3.69,4.26,13.37,47.59359,-54.27349
2019-12-31 20:04:01+00:00,27.0,29.0,2.85,3.55,13.37,47.59359,-54.27349
2019-12-31 20:14:01+00:00,10.0,17.0,4.28,5.24,12.89,47.59359,-54.27349
2019-12-31 20:24:01+00:00,21.0,21.0,3.8,4.65,12.89,47.59359,-54.27349
2019-12-31 20:34:01+00:00,16.0,14.0,3.93,4.44,12.89,47.59359,-54.27349
2019-12-31 20:44:01+00:00,17.0,13.0,2.85,3.13,12.89,47.59359,-54.27349
2019-12-31 20:54:01+00:00,14.0,10.0,2.99,3.45,12.89,47.59359,-54.27349
2019-12-31 21:04:01+00:00,20.0,19.0,2.4,2.87,12.89,47.59359,-54.27349
2019-12-31 21:14:01+00:00,48.0,43.0,2.46,3.05,12.65,47.59359,-54.27349
2019-12-31 21:24:01+00:00,40.0,32.0,2.92,3.77,12.65,47.59359,-54.27349
2019-12-31 21:34:01+00:00,22.0,26.0,2.72,3.28,12.65,47.59359,-54.27349
2019-12-31 21:44:01+00:00,37.0,39.0,2.44,2.96,12.65,47.59359,-54.27349
2019-12-31 21:54:01+00:00,47.0,57.0,2.4,3.03,12.65,47.59359,-54.27349
2019-12-31 22:04:01+00:00,33.0,43.0,1.81,2.33,12.65,47.59359,-54.27349
2019-12-31 22:14:01+00:00,41.0,43.0,1.39,1.85,12.65,47.59359,-54.27349
2019-12-31 22:24:01+00:00,49.0,49.0,1.05,1.64,12.65,47.59359,-54.27349
2019-12-31 22:34:01+00:00,53.0,61.0,0.93,1.23,12.65,47.59359,-54.27349
2019-12-31 22:44:01+00:00,31.0,21.0,1.34,1.75,12.65,47.59359,-54.27349
2019-12-31 22:54:01+00:00,27.0,29.0,1.83,2.78,12.65,47.59359,-54.27349
2019-12-31 23:04:01+00:00,33.0,33.0,3.0,3.74,12.65,47.59359,-54.27349
2019-12-31 23:14:01+00:00,25.0,25.0,1.99,2.4,12.57,47.59359,-54.27349
2019-12-31 23:24:01+00:00,91.0,105.0,2.42,4.03,12.57,47.59359,-54.27349
2019-12-31 23:34:01+00:00,117.0,112.0,2.88,4.35,12.57,47.59359,-54.27349
2019-12-31 23:44:01+00:00,122.0,118.0,2.7,4.39,12.57,47.59359,-54.27349
2019-12-31 23:54:01+00:00,120.0,137.0,2.66,4.21,12.57,47.59359,-54.27349
